Regional Weather Roundup
Issued by NWS Upton, NY

Current Version | Previous Version | Graphics & Text | Print | Product List | Glossary Off
Versions: 1 2 3 4 5 6 7 8 9 10 11 12 13 14 15 16 17 18 19 20 21 22 23 24 25 26 27 28 29 30 31 32 33 34 35 36 37 38 39 40 41 42 43 44 45 46 47 48 49 50

000
ASUS41 KOKX 020608
RWROKX

REGIONAL WEATHER ROUNDUP
NATIONAL WEATHER SERVICE NEW YORK NY
200 AM EDT THU JUL 02 2015

NOTE: "FAIR" INDICATES FEW OR NO CLOUDS BELOW 12,000 FEET WITH NO
SIGNIFICANT WEATHER AND/OR OBSTRUCTIONS TO VISIBILITY.

NYZ071-072-176-178-NJZ106-104-020700-
NEW YORK CITY METRO AREA


CITY           SKY/WX    TMP DP  RH WIND       PRES   REMARKS
CENTRAL PARK   CLEAR     73  59  61 CALM      29.90S
LAGUARDIA APRT PTCLDY    74  60  61 NW9       29.87S
KENNEDY INTL   PTCLDY    76  59  55 NW8       29.88R
NEWARK/LIBERTY CLEAR     71  60  68 W6        29.87S
BRNX BOT. GARD   N/A     72  59  64 CALM      29.87F
TETERBORO      CLEAR     71  59  65 NW3       29.87S
$$

NYZ177-179-078>081-020700-
LONG ISLAND NEW YORK

CITY           SKY/WX    TMP DP  RH WIND       PRES   REMARKS
FARMINGDALE    CLEAR     73  59  61 NW6       29.87S
ISLIP          PTCLDY    69  59  70 W6        29.85S
SHIRLEY        PTCLDY    65  61  87 CALM      29.87S
WESTHAMPTON    PTCLDY    62  61  96 CALM      29.88S
MONTAUK POINT    N/A     71  61  70 VRB3      29.87S
$$

NYZ052-065-067-020700-
HUDSON VALLEY

CITY           SKY/WX    TMP DP  RH WIND       PRES   REMARKS
WHITE PLAINS   CLEAR     67  58  72 NW6       29.88S
NEWBURGH       CLEAR     64  61  88 SW5       29.91R
MONTGOMERY     CLEAR     59  57  93 CALM      29.89R
POUGHKEEPSIE   CLEAR     64  60  87 S6        29.87S
ALBANY         PTCLDY    63  56  78 CALM      29.87R
$$

NJZ001-105-106-008-010-013-015-019>022-104-020700-
NEW JERSEY

CITY           SKY/WX    TMP DP  RH WIND       PRES   REMARKS
NEWARK/LIBERTY CLEAR     71  60  68 W6        29.87S
TETERBORO      CLEAR     71  59  65 NW3       29.87S
CALDWELL       CLEAR     66  60  81 S7        29.89S
MORRISTOWN     NOT AVBL
SOMERVILLE     CLEAR     63  59  87 CALM      29.87S
SUSSEX         CLEAR     61  59  93 CALM      29.90S FOG
ANDOVER          N/A     61  60  97 CALM      29.91S
TRENTON        CLEAR     67  60  78 NW3       29.88F
MILLVILLE      CLOUDY    71  69  93 CALM      29.89F FOG
ATLANTIC CITY  CLOUDY    70  68  93 CALM      29.89F
WRIGHTSTOWN    CLEAR     65  62  89 CALM      29.87S
TOMS RIVER     PTCLDY    66  63  88 CALM      29.89F
BELMAR         PTCLDY    70  57  64 SW6       29.89S
$$

PAZ047>061-062-071-020700-
EASTERN PENNSYLVANIA

CITY           SKY/WX    TMP DP  RH WIND       PRES   REMARKS
PHILADELPHIA   PTCLDY    73  59  61 CALM      29.90S
ALLENTOWN      CLEAR     62  58  86 CALM      29.90S
SCRANTON       CLEAR     62  58  86 SE5       29.91F
$$

CTZ002-004>006-009-010-012-RIZ004-006-007-MAZ004-011-015-020700-
SOUTHERN NEW ENGLAND
 IN CT

CITY           SKY/WX    TMP DP  RH WIND       PRES   REMARKS
BRADLEY INTL   PTCLDY    63  57  81 CALM      29.85S
HARTFORD       CLEAR     66  61  84 S3        29.86S
DANBURY        CLEAR     63  58  83 NW3       29.90S
WTRBRY/OXFORD  CLEAR     64  57  77 CALM      29.90S
BRIDGEPORT     CLEAR     72  60  66 NW5       29.86F
MERIDEN        CLEAR     63  59  87 CALM      29.87S
NEW HAVEN      PTCLDY    70  60  70 NW6       29.85F
CHESTER        FAIR      66  61  82 NW5       29.87F
GROTON         PTCLDY    65  61  87 N3        29.85S
WILLIMANTIC    CLEAR     63  60  90 CALM      29.87R

 IN RI

CITY           SKY/WX    TMP DP  RH WIND       PRES   REMARKS
PROVIDENCE     PTCLDY    68  60  75 W8        29.85S
BLOCK ISLAND   MOCLDY    66  61  82 W3        29.86S
WESTERLY       PTCLDY    66  61  84 NW3       29.86S

 IN MA

CITY           SKY/WX    TMP DP  RH WIND       PRES   REMARKS
BOSTON         CLEAR     68  58  70 W9        29.82R
WORCESTER      CLEAR     63  56  78 W10       29.86S
WESTFIELD      CLEAR     60  56  86 CALM      29.86R
PROVINCETOWN   CLEAR     63   7  11 W9        29.82S
NANTUCKET      PTCLDY    68  65  90 W12       29.85R
$$

ANZ330-335-338-340-345-350-353-355-020700-
COASTAL MARINE OBSERVATIONS


STATION/POSITION TIME  SKY/WX   TEMP    WIND        PRES    VSBY  WAVE
                                AIR SEA DIR/SP/G                  HT/PER
                 (UTC)          (F)     (DEG/KT/KT) (MB)    (MI)  (FT/S)
NY HARB ENTRANCE 0550            72 71  260/  8/  8 1011.3          4/ 8
4S FIRE IS       0503               69                N/A           4/ 7
20S FIRE ISLAND  0550            70 67  250/  8/ 10 1011.4          4/ 7
GREAT SOUTH BAY  0500            76 75  310/  4/  8   N/A
23SW MTP         0550            68 66  210/  6/  8 1010.8          6/ 9
HUDSON CANYON    NOT AVBL
KINGS POINT      0500            74 66  340/  7/  9 1010.9
CENTRAL LI SOUND NOT AVBL
EASTERN LI SOUND 0500            65 63  250/  6/  8   N/A
ROBBINS REEF     0500            75     300/  8/  9 1010.5
$$


>>>>>>>>>>>>>>>>>>>>>>>>>>>> KEY <<<<<<<<<<<<<<<<<<<<<<<<<<<
>                                                          <
>     SKY/WX - SKY CONDITION/PRESENT WEATHER               <
>     TMP    - TEMPERATURE IN FAHRENHEIT                   <
>     DP     - DEWPOINT IN FAHRENHEIT                      <
>     RH     - RELATIVE HUMIDITY IN PERCENT                <
>     WIND   - DIRECTION AND SPEED IN MPH                  <
>     PRES   - MEAN SEA LEVEL PRESSURE IN INCHES OF HG     <
>     WCI    - WIND CHILL INDEX                            <
>     VSB    - VISIBILITY IN MILES                         <
>     HX     - HEAT INDEX                                  <
>     TC     - TEMPERATURE IN CELSIUS                      <
>     VRB    - VARIABLE WIND DIRECTION                     <
>                                                          <
>>>>>>>>>>>>>>>>>>>>>>>>>>>> KEY <<<<<<<<<<<<<<<<<<<<<<<<<<<





USA.gov is the U.S. government's official web portal to all federal, state and local government web resources and services.